Wind_Speed
8 8 10 15 16 20 20 21 23 21 20 22 21 21 20 20 23 23 19 15 8 5 14 18 21 22 21 20 18 14 7 7 10 14 16 17 19 19 21 22 21 22 23 27
4 12 15 15 13 13 18 21 21 20 17 13 17 21 25 21 19 14 12 10 4 11 14 17 23 26 28 26 24 19 13 7 5 9 9 12 11 16 17 17 19 21 23 24
17 15 5 9 12 18 18 19 22 22 18 17 13 15 12 10 19 10 7 12 16 14 14 14 19 23 23 25 25 24 20 12 5 2 4 6 7 5 9 13 16 17 21 23
11 8 6 11 15 14 15 12 7 12 9 10 7 11 11 17 12 9 13 14 14 14 14 13 16 23 25 24 21 21 21 19 15 8 2 3 6 8 7 10 11 14 18 21
0 5 4 8 9 4 8 2 7 8 11 16 14 9 5 15 8 13 12 12 12 13 13 15 19 23 23 23 24 24 23 22 21 17 9 6 5 8 8 6 5 11 14 20
17 2 4 10 3 7 6 7 14 13 8 8 6 6 4 4 5 12 10 10 11 11 12 13 15 15 17 17 18 20 22 26 25 20 16 13 11 9 9 9 10 9 12 16
5 7 5 4 7 5 6 8 7 8 8 13 5 6 9 6 3 5 10 8 9 10 10 11 11 12 14 16 17 22 25 29 27 27 21 16 13 13 12 10 10 10 11 12
13 17 7 10 6 12 10 9 7 10 14 16 8 12 10 5 12 12 10 10 9 8 8 8 10 12 13 16 22 22 24 23 23 22 21 22 20 15 12 12 13 11 13 11
10 9 5 4 4 2 5 7 8 6 11 8 14 23 18 12 12 9 10 9 8 7 6 8 12 16 16 17 17 18 20 21 20 19 18 19 20 21 18 14 13 13 14 14
1 10 3 1 2 8 6 5 7 4 5 15 12 18 13 7 12 10 7 7 6 8 10 10 12 13 13 14 16 19 20 19 18 18 17 17 17 18 18 18 19 18 16 15
4 3 9 6 7 12 10 10 11 12 11 13 16 13 8 9 8 7 7 7 7 8 8 8 8 11 12 14 17 18 18 18 19 17 17 17 17 16 17 18 18 21 20 18
10 5 10 23 21 19 14 15 16 12 9 11 13 12 10 8 7 5 4 5 5 5 6 6 6 8 13 15 16 15 14 15 16 16 15 14 15 17 19 20 22 25 23 22
3 2 5 8 10 2 4 6 12 14 12 17 14 12 7 4 3 2 4 6 4 4 4 5 7 9 10 11 11 11 12 12 12 15 14 15 16 20 24 25 24 25 26 25
2 5 11 13 17 19 19 18 15 11 9 17 16 14 15 14 9 7 11 6 5 4 4 4 6 9 9 10 10 11 11 10 11 13 15 15 16 16 19 24 26 26 26 24
4 10 15 18 21 19 18 19 24 24 23 23 24 23 24 23 17 7 2 1 5 7 6 4 5 8 11 12 14 14 14 15 15 15 16 16 17 19 24 26 27 28 27 28
7 10 11 16 19 20 21 24 24 22 22 24 25 28 23 9 2 3 2 4 7 9 8 5 5 8 10 11 12 14 15 16 18 25 27 27 27 26 22 22 23 22 24 28
11 8 8 18 16 18 16 24 23 26 26 25 22 12 7 5 3 5 6 7 9 10 10 8 8 10 11 12 12 14 15 15 18 25 28 31 29 27 27 29 29 25 23 24
12 13 9 15 13 20 14 14 12 16 14 10 5 1 2 2 7 9 10 11 11 12 12 11 14 16 15 15 15 16 15 17 18 20 22 25 24 27 28 28 27 28 26 27
17 16 10 11 15 19 25 21 20 17 17 11 7 5 2 9 12 14 10 7 10 11 12 15 18 17 17 16 16 15 15 18 19 21 23 24 24 25 26 29 32 31 28 30
7 14 12 10 14 17 15 5 2 2 13 6 5 3 7 7 9 12 12 11 11 14 15 16 18 15 17 18 17 16 19 20 22 23 25 26 26 27 29 29 30 33 31 32
3 5 14 14 16 12 8 4 2 7 9 10 5 6 9 10 11 13 11 13 14 14 17 17 13 14 17 18 20 20 22 22 24 25 27 28 29 30 32 34 34 33 34 34
8 7 7 5 6 12 4 5 5 5 2 5 10 13 12 14 12 12 13 11 10 13 14 12 14 17 20 20 20 23 24 26 27 28 31 31 31 32 33 34 36 35 35 35
7 11 7 7 8 5 9 9 11 12 13 15 18 16 12 12 12 12 12 11 10 10 11 12 13 18 23 19 18 24 27 29 32 33 33 33 33 32 32 33 34 33 32 32
15 18 12 14 17 23 19 19 18 16 17 17 15 13 11 12 10 7 6 6 6 10 11 12 14 17 22 21 22 23 27 28 29 31 32 31 31 32 31 31 30 31 30 30
12 5 13 14 20 21 19 18 19 18 16 15 12 8 10 8 6 5 5 5 8 10 12 13 15 19 23 25 26 25 26 27 29 30 30 30 29 29 31 30 30 31 32 34
16 21 13 15 19 16 18 16 15 11 14 13 10 6 4 2 4 3 4 6 8 10 13 16 17 19 23 26 28 28 27 27 29 30 29 29 31 31 31 31 32 32 37 39
Wind_Direction
194 225 226 252 249 258 277 284 285 285 297 296 298 297 298 289 281 279 282 287 296 23 66 45 37 29 26 25 17 3 329 259 236 235 230 230 231 225 227 227 227 223 215 208
192 240 254 271 281 291 279 281 282 288 296 311 291 295 292 290 278 284 296 313 58 89 57 41 32 28 25 20 19 19 16 344 261 240 240 246 242 239 239 235 231 225 221 213
254 270 314 269 259 264 272 283 291 296 309 292 297 284 292 256 289 300 354 92 72 56 49 39 35 34 30 28 23 22 24 33 34 306 272 254 253 296 263 243 241 230 226 221
264 283 248 253 255 268 274 283 296 295 302 300 16 298 291 276 263 70 102 77 74 56 44 43 38 34 31 26 28 38 41 39 38 37 31 322 277 272 262 263 255 243 232 228
143 170 185 225 237 220 264 304 284 278 269 287 277 261 273 279 269 111 93 78 66 68 57 44 35 32 30 30 28 32 37 44 41 31 30 6 324 295 286 269 260 250 242 236
268 100 257 253 263 226 345 278 265 260 265 265 296 269 291 20 360 123 115 94 75 64 63 60 52 39 35 38 37 40 44 43 38 35 31 16 348 329 315 298 287 255 243 240
280 226 192 242 260 206 228 277 295 274 255 267 232 278 263 322 168 139 126 91 71 64 58 54 53 50 39 35 37 43 40 39 32 29 29 22 11 347 330 318 301 286 272 255
288 293 186 159 240 305 282 263 265 287 284 294 288 269 248 353 116 124 125 117 96 70 56 55 52 47 42 34 32 35 42 41 34 31 22 21 19 9 349 333 319 305 293 281
304 258 348 263 273 282 285 243 287 288 277 281 264 269 273 232 154 135 118 106 88 81 55 32 34 34 27 31 34 34 36 35 31 28 25 23 18 15 7 355 338 321 309 298
83 290 263 77 274 216 235 346 265 221 254 261 262 273 271 260 171 145 116 88 62 39 37 30 24 23 23 24 24 29 32 29 23 22 22 17 16 16 10 7 5 350 333 317
26 220 278 304 236 266 258 254 242 266 249 260 268 267 22 42 89 112 77 48 31 28 23 26 23 15 17 24 27 26 20 16 15 15 13 11 10 9 8 10 5 360 355 338
282 285 265 276 286 286 295 269 275 256 251 248 263 259 3 84 86 78 45 1 358 8 9 14 13 23 19 13 16 17 13 10 3 1 4 7 7 8 6 360 358 2 358 355
58 223 281 283 279 89 212 279 279 264 264 261 273 284 89 94 127 154 265 272 252 317 359 15 16 14 15 4 0 359 359 356 353 350 353 356 358 358 360 0 355 353 353 354
75 243 247 258 276 303 297 296 292 279 272 280 264 274 270 249 233 222 215 223 259 268 300 325 349 351 350 349 347 345 346 348 341 343 344 345 346 344 343 345 349 348 347 343
244 261 263 269 274 282 287 281 275 270 266 261 277 287 288 295 304 327 358 248 253 249 255 296 318 310 316 327 327 329 330 332 334 331 331 329 328 327 325 331 334 336 334 335
266 270 290 281 277 276 276 271 267 271 272 270 272 273 279 352 39 260 281 275 293 301 271 283 287 293 291 282 294 304 313 314 317 319 318 320 321 323 319 318 317 320 319 321
265 268 264 268 281 287 270 257 263 263 263 269 275 307 358 4 333 319 310 302 301 305 292 269 286 298 311 307 295 292 296 293 297 305 309 312 312 311 311 313 316 315 308 306
254 258 257 270 282 259 263 275 289 285 285 296 309 64 106 350 322 314 300 293 301 306 301 290 289 298 306 309 308 301 291 286 288 286 289 294 298 297 301 305 305 306 306 302
234 250 263 255 252 274 291 287 285 293 291 311 209 182 6 327 313 292 285 344 318 301 306 305 298 295 303 308 316 313 303 297 292 289 292 290 288 287 288 290 298 299 299 297
244 236 237 247 259 266 284 342 348 309 276 128 111 175 303 301 286 289 322 322 301 291 297 305 312 308 307 318 323 315 306 303 300 301 296 293 289 284 282 282 285 290 289 287
214 227 231 243 255 267 271 92 142 247 295 150 180 285 287 277 273 291 299 291 288 295 302 308 309 311 314 325 328 315 309 305 305 304 299 296 291 288 285 284 283 285 285 283
233 246 228 231 259 270 89 120 224 321 203 228 269 297 289 290 282 286 284 285 293 308 323 329 323 314 315 324 328 314 309 313 313 309 302 298 295 293 290 288 287 285 283 280
240 239 256 233 245 246 193 229 254 272 273 282 297 298 290 281 272 278 287 295 316 325 331 330 323 314 311 320 320 310 309 313 312 310 306 304 302 297 294 291 289 287 284 279
252 251 247 254 249 257 267 269 269 275 276 280 281 287 284 270 280 286 290 301 310 316 323 328 321 309 305 316 313 306 308 310 308 304 304 304 302 300 297 292 289 286 284 282
246 259 240 252 257 266 263 265 266 270 273 279 285 277 263 268 259 282 295 306 305 313 317 319 313 305 304 312 309 310 309 309 306 304 302 301 298 297 296 290 287 284 280 278
241 241 246 252 259 262 266 273 276 282 281 275 274 202 191 211 263 284 283 302 311 313 314 309 304 302 302 305 306 308 309 308 304 302 302 301 300 297 294 292 291 287 287 287
Height
797 801 800 784 779 781 782 785 780 774 767 771 770 768 762 753 744 738 734 731 732 736 744 750 752 752 750 747 746 744 742 742 745 749 751 754 756 758 761 764 768 772 773 775
803 798 783 779 782 792 787 787 783 771 765 771 769 769 758 749 739 734 731 734 736 741 748 754 755 754 753 753 750 746 743 744 745 748 751 753 754 756 759 762 764 766 770 772
792 780 777 786 786 786 783 786 781 780 774 772 769 764 745 740 729 728 731 739 750 757 759 762 762 759 759 756 755 753 750 747 747 749 752 754 756 756 758 760 762 764 766 768
784 778 786 788 790 785 789 772 781 783 787 782 772 773 753 735 728 733 740 751 755 762 768 768 768 766 764 765 762 757 754 753 751 751 753 754 757 757 757 760 761 762 764 766
776 786 791 788 781 780 779 782 781 781 782 776 772 774 742 727 735 740 754 763 768 769 771 772 772 772 772 770 767 762 759 754 752 756 755 756 758 759 757 757 758 760 762 762
781 786 787 780 776 781 784 783 779 777 778 776 752 758 746 739 741 745 757 764 769 773 772 772 776 780 779 775 773 769 765 760 758 757 756 758 761 759 758 759 758 757 757 758
770 778 778 783 787 785 787 787 781 779 775 766 750 762 748 737 738 743 758 767 770 773 777 780 781 782 784 782 778 766 762 758 761 764 762 760 759 761 761 758 758 757 756 756
782 779 777 779 780 780 777 778 787 791 776 764 761 755 741 731 747 754 760 766 773 778 782 783 782 783 781 779 772 770 764 764 765 766 769 767 764 760 761 760 760 755 755 752
782 775 767 779 777 783 774 786 773 786 783 784 761 742 728 730 751 759 766 772 778 782 785 786 781 778 780 778 777 774 769 768 769 769 769 768 767 765 764 761 759 759 756 753
785 790 774 781 782 780 781 783 785 782 798 784 757 746 735 731 738 758 768 776 782 780 776 779 783 785 783 781 778 775 773 775 775 771 770 771 769 767 766 763 758 757 753 752
791 801 779 779 776 778 779 783 781 778 777 778 774 752 747 747 752 764 774 779 780 782 784 783 786 789 787 782 776 774 777 779 777 775 772 771 770 769 767 763 760 758 752 752
790 793 794 779 769 769 774 779 778 783 778 767 766 761 748 763 773 777 782 783 785 787 787 786 787 785 784 785 779 778 779 780 782 779 776 772 771 768 765 764 759 754 752 749
794 800 803 784 768 783 783 779 778 779 783 777 770 753 763 774 778 782 785 787 787 788 787 786 784 785 784 787 786 783 781 780 780 780 776 773 769 766 762 759 756 754 749 746
802 805 799 795 778 776 786 786 784 791 787 771 761 762 761 767 773 778 778 779 783 784 787 786 783 784 786 786 785 783 781 780 779 776 774 771 766 764 761 758 755 752 750 747
800 803 795 788 783 783 787 788 780 777 772 776 758 759 753 753 757 772 771 776 782 784 785 783 785 788 786 785 786 783 779 777 775 773 771 768 764 761 758 755 753 750 747 744
799 804 799 800 791 790 787 774 769 770 767 764 761 753 748 757 770 772 774 777 778 777 778 781 785 785 785 786 784 782 777 775 774 770 768 765 761 757 754 751 749 746 743 739
805 804 805 799 793 794 792 773 770 761 756 754 753 758 776 774 775 775 778 779 779 778 778 780 781 781 781 779 778 777 775 774 772 770 766 762 758 753 751 748 745 740 738 735
807 808 807 802 805 805 760 754 758 760 759 763 773 782 779 777 777 777 776 776 777 777 777 776 776 777 776 774 773 770 769 768 767 764 760 757 754 750 747 744 740 736 733 729
795 798 805 805 794 768 764 765 761 760 759 761 767 775 776 777 776 773 769 772 774 775 775 774 773 771 772 771 769 767 764 763 761 758 755 752 749 745 742 738 734 730 727 721
794 791 798 794 793 785 763 762 772 771 767 770 775 778 778 777 778 768 767 771 772 771 771 769 768 767 767 767 765 763 760 758 755 752 748 746 743 739 734 730 726 721 718 712
798 799 795 788 784 772 762 773 773 780 765 769 774 774 774 775 771 767 767 768 768 767 767 765 765 765 765 764 762 759 757 754 751 747 743 739 735 731 726 721 716 712 707 703
787 787 786 794 797 789 767 774 775 762 764 768 767 765 765 763 764 764 764 763 763 763 764 765 764 763 762 762 759 755 751 748 745 741 736 732 728 723 719 714 707 704 699 693
793 777 777 776 768 758 764 765 762 762 763 760 760 758 758 759 758 759 759 760 761 763 765 765 764 761 759 759 758 752 748 744 738 733 728 723 719 715 711 705 699 693 689 682
770 765 770 772 766 757 758 756 756 754 754 753 753 753 754 755 754 756 758 761 763 764 764 764 762 760 756 756 754 751 745 741 735 728 722 716 711 705 701 697 692 685 680 673
758 758 760 760 755 752 753 751 749 749 749 748 748 750 750 752 754 756 759 762 763 764 764 763 761 757 753 750 747 745 740 735 729 723 716 710 705 699 692 688 683 677 672 667
748 747 752 746 741 743 740 739 741 742 742 742 743 748 752 754 756 758 760 761 762 763 763 761 758 755 750 746 741 738 734 730 724 716 710 704 698 691 685 677 669 667 659 653